Time,TemperatureF,DewpointF,PressureIn,WindDirection,WindDirectionDegrees,WindSpeedMPH,WindSpeedGustMPH,Humidity,HourlyPrecipIn,Conditions,Clouds,dailyrainin,SoftwareType,DateUTC
2013-11-03 00:11:00,42.3,39.0,30.01,SE,143,0.0,3.0,88,0.00,,,0.00,weatherlink.com 1.10,2013-11-03 04:11:00,
2013-11-03 00:26:00,42.2,39.0,30.02,SSE,163,2.0,3.0,89,0.00,,,0.00,weatherlink.com 1.10,2013-11-03 04:26:00,
2013-11-03 00:41:00,42.0,40.0,30.02,ESE,121,4.0,6.0,91,0.00,,,0.00,weatherlink.com 1.10,2013-11-03 04:41:00,
2013-11-03 00:56:00,41.4,40.0,30.02,South,177,2.0,6.0,93,0.00,,,0.00,weatherlink.com 1.10,2013-11-03 04:56:00,
2013-11-03 01:11:00,41.2,40.0,30.03,SE,140,2.0,3.0,95,0.00,,,0.00,weatherlink.com 1.10,2013-11-03 05:11:00,
2013-11-03 01:26:00,41.0,40.0,30.04,NNE,22,3.0,3.0,95,0.00,,,0.00,weatherlink.com 1.10,2013-11-03 05:26:00,
2013-11-03 01:41:00,40.7,39.0,30.05,SW,223,2.0,5.0,95,0.00,,,0.00,weatherlink.com 1.10,2013-11-03 05:41:00,
2013-11-03 01:56:00,40.2,39.0,30.05,WSW,252,0.0,4.0,95,0.00,,,0.00,weatherlink.com 1.10,2013-11-03 05:56:00,
2013-11-03 01:11:00,39.7,38.0,30.06,SW,214,2.0,4.0,95,0.00,,,0.00,weatherlink.com 1.10,2013-11-03 06:11:00,
2013-11-03 01:26:00,38.9,37.0,30.07,WSW,241,0.0,8.0,94,0.01,,,0.01,weatherlink.com 1.10,2013-11-03 06:26:00,
2013-11-03 01:41:00,37.1,35.0,30.08,WNW,297,1.0,4.0,93,0.01,,,0.01,weatherlink.com 1.10,2013-11-03 06:41:00,
2013-11-03 01:56:00,36.0,35.0,30.09,WNW,297,2.0,5.0,94,0.01,,,0.01,weatherlink.com 1.10,2013-11-03 06:56:00,
2013-11-03 02:11:00,35.4,34.0,30.10,NW,323,2.0,6.0,94,0.01,,,0.00,weatherlink.com 1.10,2013-11-03 07:11:00,
2013-11-03 02:26:00,34.9,33.0,30.11,NW,315,4.0,9.0,93,0.01,,,0.01,weatherlink.com 1.10,2013-11-03 07:26:00,
2013-11-03 02:41:00,34.5,33.0,30.12,NW,309,3.0,6.0,94,0.01,,,0.01,weatherlink.com 1.10,2013-11-03 07:41:00,
2013-11-03 02:56:00,34.4,33.0,30.12,NW,314,4.0,5.0,94,0.01,,,0.01,weatherlink.com 1.10,2013-11-03 07:56:00,
2013-11-03 03:11:00,34.3,33.0,30.13,NNW,328,2.0,6.0,93,0.01,,,0.01,weatherlink.com 1.10,2013-11-03 08:11:00,
2013-11-03 03:26:00,34.3,33.0,30.14,WNW,300,4.0,8.0,93,0.00,,,0.01,weatherlink.com 1.10,2013-11-03 08:26:00,
2013-11-03 03:41:00,34.2,32.0,30.14,NNW,330,2.0,5.0,93,0.00,,,0.01,weatherlink.com 1.10,2013-11-03 08:41:00,
2013-11-03 03:56:00,34.1,32.0,30.16,NW,315,4.0,8.0,93,0.00,,,0.01,weatherlink.com 1.10,2013-11-03 08:56:00,
2013-11-03 04:11:00,34.0,32.0,30.16,WNW,294,0.0,6.0,93,0.00,,,0.01,weatherlink.com 1.10,2013-11-03 09:11:00,
2013-11-03 04:26:00,33.9,32.0,30.17,SW,221,0.0,3.0,94,0.00,,,0.01,weatherlink.com 1.10,2013-11-03 09:26:00,
2013-11-03 04:41:00,34.0,33.0,30.18,South,174,2.0,2.0,95,0.00,,,0.01,weatherlink.com 1.10,2013-11-03 09:41:00,
2013-11-03 04:57:00,34.0,33.0,30.18,SSE,166,2.0,3.0,95,0.00,,,0.01,weatherlink.com 1.10,2013-11-03 09:57:00,
2013-11-03 05:13:00,33.8,33.0,30.19,SW,225,1.0,5.0,95,0.00,,,0.01,weatherlink.com 1.10,2013-11-03 10:13:00,
2013-11-03 05:27:00,33.5,32.0,30.20,SW,229,2.0,5.0,95,0.00,,,0.01,weatherlink.com 1.10,2013-11-03 10:27:00,
2013-11-03 05:43:00,33.3,32.0,30.21,South,169,3.0,3.0,95,0.00,,,0.01,weatherlink.com 1.10,2013-11-03 10:43:00,
2013-11-03 05:57:00,33.2,32.0,30.22,South,191,4.0,5.0,95,0.00,,,0.01,weatherlink.com 1.10,2013-11-03 10:57:00,
2013-11-03 06:12:00,32.9,32.0,30.23,SSE,167,4.0,5.0,95,0.00,,,0.01,weatherlink.com 1.10,2013-11-03 11:12:00,
2013-11-03 06:27:00,32.7,32.0,30.23,SW,216,3.0,3.0,95,0.00,,,0.01,weatherlink.com 1.10,2013-11-03 11:27:00,
2013-11-03 06:42:00,32.4,31.0,30.24,WNW,283,2.0,7.0,95,0.00,,,0.01,weatherlink.com 1.10,2013-11-03 11:42:00,
2013-11-03 06:57:00,32.3,31.0,30.26,SSW,203,1.0,4.0,95,0.00,,,0.01,weatherlink.com 1.10,2013-11-03 11:57:00,
2013-11-03 07:12:00,32.1,31.0,30.27,SSE,147,1.0,4.0,96,0.00,,,0.01,weatherlink.com 1.10,2013-11-03 12:12:00,
2013-11-03 07:27:00,32.0,31.0,30.28,SW,226,2.0,4.0,96,0.00,,,0.01,weatherlink.com 1.10,2013-11-03 12:27:00,
2013-11-03 07:42:00,31.8,31.0,30.30,SSW,203,2.0,5.0,95,0.00,,,0.01,weatherlink.com 1.10,2013-11-03 12:42:00,
2013-11-03 07:57:00,31.6,30.0,30.31,SSW,195,0.0,5.0,95,0.00,,,0.01,weatherlink.com 1.10,2013-11-03 12:57:00,
2013-11-03 08:12:00,31.4,30.0,30.32,South,176,2.0,5.0,95,0.00,,,0.01,weatherlink.com 1.10,2013-11-03 13:12:00,
2013-11-03 08:27:00,31.4,30.0,30.32,SSE,154,1.0,4.0,95,0.00,,,0.01,weatherlink.com 1.10,2013-11-03 13:27:00,
2013-11-03 08:42:00,31.6,30.0,30.33,SSW,205,3.0,6.0,94,0.00,,,0.01,weatherlink.com 1.10,2013-11-03 13:42:00,
2013-11-03 08:57:00,31.9,30.0,30.34,SSW,193,0.0,8.0,93,0.00,,,0.01,weatherlink.com 1.10,2013-11-03 13:57:00,
2013-11-03 09:12:00,32.0,30.0,30.34,NNE,18,0.0,4.0,93,0.00,,,0.01,weatherlink.com 1.10,2013-11-03 14:12:00,
2013-11-03 09:28:00,32.1,31.0,30.34,SE,135,3.0,5.0,94,0.00,,,0.01,weatherlink.com 1.10,2013-11-03 14:28:00,
2013-11-03 09:42:00,32.0,30.0,30.35,South,172,2.0,3.0,93,0.00,,,0.01,weatherlink.com 1.10,2013-11-03 14:42:00,
2013-11-03 09:57:00,32.0,30.0,30.36,SE,129,1.0,5.0,93,0.00,,,0.01,weatherlink.com 1.10,2013-11-03 14:57:00,
2013-11-03 10:12:00,31.3,30.0,30.37,SW,224,3.0,7.0,93,0.00,,,0.01,weatherlink.com 1.10,2013-11-03 15:12:00,
2013-11-03 10:27:00,31.2,29.0,30.38,NW,308,2.0,6.0,93,0.00,,,0.01,weatherlink.com 1.10,2013-11-03 15:27:00,
2013-11-03 10:43:00,30.9,29.0,30.38,South,176,5.0,7.0,93,0.00,,,0.01,weatherlink.com 1.10,2013-11-03 15:43:00,
2013-11-03 10:58:00,30.3,29.0,30.40,SSE,158,4.0,7.0,93,0.00,,,0.01,weatherlink.com 1.10,2013-11-03 15:58:00,
2013-11-03 11:13:00,30.3,29.0,30.40,SW,226,3.0,6.0,93,0.00,,,0.01,weatherlink.com 1.10,2013-11-03 16:13:00,
2013-11-03 11:28:00,30.0,28.0,30.40,SW,233,6.0,8.0,93,0.00,,,0.01,weatherlink.com 1.10,2013-11-03 16:28:00,
2013-11-03 11:43:00,29.6,28.0,30.40,SW,221,1.0,7.0,92,0.00,,,0.01,weatherlink.com 1.10,2013-11-03 16:43:00,
2013-11-03 11:58:00,29.3,27.0,30.41,SSW,207,5.0,5.0,92,0.00,,,0.01,weatherlink.com 1.10,2013-11-03 16:58:00,
2013-11-03 12:13:00,29.3,27.0,30.41,SSE,166,2.0,8.0,92,0.00,,,0.01,weatherlink.com 1.10,2013-11-03 17:13:00,
2013-11-03 12:28:00,29.6,27.0,30.41,SE,136,2.0,6.0,91,0.00,,,0.01,weatherlink.com 1.10,2013-11-03 17:28:00,
2013-11-03 12:43:00,29.4,27.0,30.42,SW,224,3.0,5.0,89,0.00,,,0.01,weatherlink.com 1.10,2013-11-03 17:43:00,
2013-11-03 12:58:00,29.6,27.0,30.42,SSW,200,1.0,6.0,88,0.00,,,0.01,weatherlink.com 1.10,2013-11-03 17:58:00,
2013-11-03 13:13:00,29.7,26.0,30.43,SW,217,7.0,9.0,87,0.00,,,0.01,weatherlink.com 1.10,2013-11-03 18:13:00,
2013-11-03 13:28:00,29.6,25.0,30.44,SSW,211,1.0,6.0,84,0.00,,,0.01,weatherlink.com 1.10,2013-11-03 18:28:00,
2013-11-03 13:43:00,29.6,25.0,30.44,SE,137,4.0,12.0,83,0.00,,,0.01,weatherlink.com 1.10,2013-11-03 18:43:00,
2013-11-03 13:58:00,29.3,25.0,30.45,WSW,249,1.0,9.0,83,0.00,,,0.01,weatherlink.com 1.10,2013-11-03 18:58:00,
2013-11-03 14:13:00,29.1,25.0,30.46,SSE,149,3.0,7.0,83,0.00,,,0.01,weatherlink.com 1.10,2013-11-03 19:13:00,
2013-11-03 14:28:00,28.9,24.0,30.47,SSE,163,4.0,9.0,81,0.00,,,0.01,weatherlink.com 1.10,2013-11-03 19:28:00,
2013-11-03 14:43:00,28.9,23.0,30.48,South,169,3.0,9.0,80,0.00,,,0.01,weatherlink.com 1.10,2013-11-03 19:43:00,
2013-11-03 14:58:00,28.9,23.0,30.48,SSW,197,2.0,8.0,79,0.00,,,0.01,weatherlink.com 1.10,2013-11-03 19:58:00,
2013-11-03 15:13:00,29.0,23.0,30.49,South,172,2.0,11.0,78,0.00,,,0.01,weatherlink.com 1.10,2013-11-03 20:13:00,
2013-11-03 15:28:00,28.8,22.0,30.50,SW,226,3.0,10.0,76,0.00,,,0.01,weatherlink.com 1.10,2013-11-03 20:28:00,
2013-11-03 15:43:00,28.9,23.0,30.50,SSW,203,2.0,9.0,77,0.00,,,0.01,weatherlink.com 1.10,2013-11-03 20:43:00,
2013-11-03 15:58:00,28.9,23.0,30.51,SE,140,1.0,8.0,77,0.00,,,0.01,weatherlink.com 1.10,2013-11-03 20:58:00,
2013-11-03 16:13:00,28.6,22.0,30.51,SSW,208,3.0,6.0,76,0.00,,,0.01,weatherlink.com 1.10,2013-11-03 21:13:00,
2013-11-03 16:28:00,28.0,22.0,30.52,SSW,197,4.0,5.0,77,0.00,,,0.01,weatherlink.com 1.10,2013-11-03 21:28:00,
2013-11-03 16:43:00,27.4,22.0,30.53,South,183,1.0,2.0,79,0.00,,,0.01,weatherlink.com 1.10,2013-11-03 21:43:00,
2013-11-03 16:59:00,27.1,22.0,30.54,South,180,2.0,3.0,81,0.00,,,0.01,weatherlink.com 1.10,2013-11-03 21:59:00,
2013-11-03 17:14:00,26.9,22.0,30.55,SSW,205,1.0,5.0,80,0.00,,,0.01,weatherlink.com 1.10,2013-11-03 22:14:00,
2013-11-03 17:29:00,26.7,21.0,30.56,South,172,5.0,6.0,79,0.00,,,0.01,weatherlink.com 1.10,2013-11-03 22:29:00,
2013-11-03 17:44:00,26.3,21.0,30.56,South,188,2.0,3.0,79,0.00,,,0.01,weatherlink.com 1.10,2013-11-03 22:44:00,
2013-11-03 17:59:00,26.5,20.0,30.58,NNE,27,3.0,10.0,76,0.00,,,0.01,weatherlink.com 1.10,2013-11-03 22:59:00,
2013-11-03 18:14:00,26.4,20.0,30.59,SW,225,1.0,5.0,75,0.00,,,0.01,weatherlink.com 1.10,2013-11-03 23:14:00,
2013-11-03 18:29:00,26.0,19.0,30.60,SSE,162,1.0,4.0,76,0.00,,,0.01,weatherlink.com 1.10,2013-11-03 23:29:00,
2013-11-03 18:44:00,25.8,19.0,30.61,SSW,204,0.0,7.0,75,0.00,,,0.01,weatherlink.com 1.10,2013-11-03 23:44:00,
2013-11-03 18:59:00,25.4,19.0,30.61,SSW,212,1.0,6.0,76,0.00,,,0.01,weatherlink.com 1.10,2013-11-03 23:59:00,
2013-11-03 19:14:00,25.5,19.0,30.62,SW,222,3.0,6.0,76,0.00,,,0.01,weatherlink.com 1.10,2013-11-04 00:14:00,
2013-11-03 19:29:00,25.7,19.0,30.63,WNW,303,2.0,7.0,75,0.00,,,0.01,weatherlink.com 1.10,2013-11-04 00:29:00,
2013-11-03 19:44:00,25.7,19.0,30.63,ENE,61,2.0,4.0,75,0.00,,,0.01,weatherlink.com 1.10,2013-11-04 00:44:00,
2013-11-03 19:59:00,25.7,18.0,30.64,NW,316,1.0,6.0,74,0.00,,,0.01,weatherlink.com 1.10,2013-11-04 00:59:00,
2013-11-03 20:14:00,25.5,18.0,30.64,SE,145,1.0,6.0,74,0.00,,,0.01,weatherlink.com 1.10,2013-11-04 01:14:00,
2013-11-03 20:29:00,25.3,18.0,30.65,North,352,3.0,8.0,74,0.00,,,0.01,weatherlink.com 1.10,2013-11-04 01:29:00,
2013-11-03 20:44:00,25.1,18.0,30.65,SE,136,1.0,11.0,75,0.00,,,0.01,weatherlink.com 1.10,2013-11-04 01:44:00,
2013-11-03 20:59:00,24.7,18.0,30.66,SW,221,1.0,8.0,75,0.00,,,0.01,weatherlink.com 1.10,2013-11-04 01:59:00,
2013-11-03 21:14:00,24.2,18.0,30.67,SW,224,2.0,5.0,77,0.00,,,0.01,weatherlink.com 1.10,2013-11-04 02:14:00,
2013-11-03 21:29:00,24.1,18.0,30.68,NNW,330,2.0,6.0,76,0.00,,,0.01,weatherlink.com 1.10,2013-11-04 02:29:00,
2013-11-03 21:44:00,23.7,18.0,30.69,NW,307,1.0,5.0,77,0.00,,,0.01,weatherlink.com 1.10,2013-11-04 02:44:00,
2013-11-03 21:59:00,23.7,18.0,30.69,WNW,286,3.0,6.0,77,0.00,,,0.01,weatherlink.com 1.10,2013-11-04 02:59:00,
2013-11-03 22:14:00,23.5,17.0,30.69,NW,319,2.0,3.0,77,0.00,,,0.01,weatherlink.com 1.10,2013-11-04 03:14:00,
2013-11-03 22:29:00,23.8,17.0,30.69,NW,305,1.0,4.0,75,0.00,,,0.01,weatherlink.com 1.10,2013-11-04 03:29:00,
2013-11-03 22:44:00,23.7,17.0,30.70,NNW,336,3.0,6.0,75,0.00,,,0.01,weatherlink.com 1.10,2013-11-04 03:44:00,
2013-11-03 22:59:00,23.4,17.0,30.70,SW,220,1.0,5.0,76,0.00,,,0.01,weatherlink.com 1.10,2013-11-04 03:59:00,
2013-11-03 23:15:00,23.0,17.0,30.71,NNW,333,2.0,6.0,76,0.00,,,0.01,weatherlink.com 1.10,2013-11-04 04:15:00,
2013-11-03 23:30:00,22.5,17.0,30.71,NW,326,1.0,4.0,78,0.00,,,0.01,weatherlink.com 1.10,2013-11-04 04:30:00,
2013-11-03 23:45:00,22.8,16.0,30.73,NNW,344,1.0,5.0,76,0.00,,,0.01,weatherlink.com 1.10,2013-11-04 04:45:00,